• In Netherlands
  • List of Countries
  • For 7 days
  • Water Temperature
  • Satellite Maps
  • Weather Map
  • Weather Widgets
  • user-avatar
    Login

    Hourly Weather Lubango

    Today, 15 December, Friday

    Time Temperature Precipitation Wind Pressure Humidity
    00:00 +15°C° 0 mm 1 mps 608 mmHg 81%
    01:00 +15°C° 0 mm 1 mps 608 mmHg 86%
    02:00 +15°C° 0 mm 1 mps 608 mmHg 86%
    03:00 +13°C° 0 mm 0 mps 608 mmHg 86%
    04:00 +13°C° 0 mm 0 mps 608 mmHg 86%
    05:00 +14°C° 0 mm 0 mps 609 mmHg 80%
    06:00 +16°C° 0 mm 0 mps 610 mmHg 75%
    07:00 +17°C° 0 mm 0 mps 610 mmHg 69%
    08:00 +22°C° 0 mm 1 mps 611 mmHg 58%
    09:00 +24°C° 0 mm 1 mps 612 mmHg 47%
    10:00 +27°C° 0 mm 2 mps 613 mmHg 35%
    11:00 +28°C° 0 mm 2 mps 613 mmHg 32%
    12:00 +29°C° 0 mm 2 mps 613 mmHg 28%
    13:00 +29°C° 0 mm 2 mps 613 mmHg 28%
    14:00 +29°C° 0 mm 2 mps 612 mmHg 27%
    15:00 +29°C° 0 mm 3 mps 611 mmHg 26%
    16:00 +29°C° 0 mm 3 mps 611 mmHg 25%
    17:00 +27°C° 0 mm 2 mps 610 mmHg 32%
    18:00 +24°C° 0 mm 2 mps 609 mmHg 40%
    19:00 +20°C° 0 mm 2 mps 608 mmHg 47%
    20:00 +19°C° 0 mm 2 mps 608 mmHg 52%
    21:00 +19°C° 0 mm 1 mps 608 mmHg 57%
    22:00 +18°C° 0 mm 1 mps 608 mmHg 62%
    23:00 +18°C° 0 mm 1 mps 608 mmHg 63%

    Tomorrow, 16 December, Saturday

    Time Temperature Precipitation Wind Pressure Humidity
    00:00 +15°C° 0 mm 0 mps 608 mmHg 64%
    01:00 +15°C° 0 mm 0 mps 608 mmHg 64%
    02:00 +15°C° 0 mm 0 mps 607 mmHg 63%
    03:00 +15°C° 0 mm 0 mps 607 mmHg 62%
    04:00 +16°C° 0 mm 1 mps 607 mmHg 61%
    05:00 +18°C° 0 mm 1 mps 608 mmHg 57%
    06:00 +19°C° 0 mm 1 mps 609 mmHg 52%
    07:00 +21°C° 0 mm 1 mps 610 mmHg 48%
    08:00 +23°C° 0 mm 1 mps 611 mmHg 41%
    09:00 +25°C° 0 mm 2 mps 612 mmHg 35%
    10:00 +28°C° 0 mm 2 mps 613 mmHg 29%
    11:00 +29°C° 0 mm 2 mps 612 mmHg 28%
    12:00 +30°C° 0 mm 2 mps 612 mmHg 27%
    13:00 +31°C° 0 mm 2 mps 612 mmHg 25%
    14:00 +29°C° 0 mm 2 mps 611 mmHg 31%
    15:00 +27°C° 0 mm 3 mps 610 mmHg 36%
    16:00 +26°C° 0 mm 3 mps 610 mmHg 42%
    17:00 +24°C° 0.1 mm 3 mps 609 mmHg 49%
    18:00 +21°C° 0.1 mm 3 mps 609 mmHg 57%
    19:00 +19°C° 0.1 mm 2 mps 609 mmHg 65%
    20:00 +18°C° 0 mm 2 mps 609 mmHg 68%
    21:00 +19°C° 0 mm 1 mps 609 mmHg 72%
    22:00 +18°C° 0 mm 1 mps 609 mmHg 75%
    23:00 +18°C° 0.5 mm 1 mps 609 mmHg 76%

    Day after tomorrow, 17 December, Sunday

    Time Temperature Precipitation Wind Pressure Humidity
    00:00 +18°C° 0.5 mm 1 mps 609 mmHg 77%
    01:00 +18°C° 0.5 mm 1 mps 609 mmHg 78%
    02:00 +18°C° 0.1 mm 1 mps 608 mmHg 80%
    03:00 +16°C° 0.1 mm 1 mps 608 mmHg 81%
    04:00 +16°C° 0.1 mm 1 mps 608 mmHg 82%
    05:00 +18°C° 0 mm 1 mps 608 mmHg 80%
    06:00 +18°C° 0 mm 1 mps 609 mmHg 77%
    07:00 +17°C° 0 mm 0 mps 609 mmHg 74%
    08:00 +21°C° 0 mm 1 mps 610 mmHg 64%
    09:00 +23°C° 0 mm 1 mps 611 mmHg 54%
    10:00 +25°C° 0 mm 1 mps 612 mmHg 44%
    11:00 +25°C° 0.2 mm 2 mps 611 mmHg 44%
    12:00 +26°C° 0.2 mm 2 mps 611 mmHg 43%
    13:00 +26°C° 0.2 mm 3 mps 611 mmHg 43%
    14:00 +25°C° 0.6 mm 3 mps 610 mmHg 46%
    15:00 +25°C° 0.6 mm 3 mps 610 mmHg 49%
    16:00 +24°C° 0.6 mm 3 mps 609 mmHg 53%
    17:00 +21°C° 0.2 mm 3 mps 609 mmHg 58%
    18:00 +20°C° 0.2 mm 2 mps 609 mmHg 64%
    19:00 +18°C° 0.2 mm 2 mps 609 mmHg 70%
    20:00 +17°C° 0.1 mm 2 mps 609 mmHg 73%
    21:00 +18°C° 0.1 mm 1 mps 609 mmHg 76%
    22:00 +16°C° 0.1 mm 1 mps 610 mmHg 79%
    23:00 +16°C° 0 mm 1 mps 609 mmHg 81%

    18 December, Monday

    Time Temperature Precipitation Wind Pressure Humidity
    00:00 +15°C° 0 mm 1 mps 608 mmHg 83%
    01:00 +15°C° 0 mm 1 mps 608 mmHg 85%
    02:00 +15°C° 0 mm 1 mps 608 mmHg 85%
    03:00 +14°C° 0 mm 1 mps 607 mmHg 86%
    04:00 +14°C° 0 mm 1 mps 607 mmHg 87%
    05:00 +15°C° 0 mm 1 mps 608 mmHg 83%
    06:00 +16°C° 0 mm 1 mps 608 mmHg 79%
    07:00 +18°C° 0 mm 1 mps 609 mmHg 75%
    08:00 +19°C° 0 mm 1 mps 609 mmHg 67%
    09:00 +21°C° 0 mm 1 mps 610 mmHg 59%
    10:00 +23°C° 0 mm 2 mps 611 mmHg 51%
    11:00 +23°C° 0.2 mm 2 mps 610 mmHg 54%
    12:00 +21°C° 0.2 mm 2 mps 609 mmHg 56%
    13:00 +22°C° 0.2 mm 1 mps 609 mmHg 58%
    14:00 +21°C° 0.1 mm 2 mps 608 mmHg 58%
    15:00 +21°C° 0.1 mm 2 mps 608 mmHg 58%
    16:00 +21°C° 0.1 mm 2 mps 608 mmHg 57%
    17:00 +20°C° 0.3 mm 2 mps 608 mmHg 61%
    18:00 +19°C° 0.3 mm 2 mps 608 mmHg 64%
    19:00 +18°C° 0.3 mm 2 mps 608 mmHg 67%
    20:00 +17°C° 0.3 mm 2 mps 608 mmHg 70%
    21:00 +16°C° 0.3 mm 1 mps 608 mmHg 73%
    22:00 +15°C° 0.3 mm 1 mps 608 mmHg 76%
    23:00 +15°C° 0 mm 1 mps 608 mmHg 78%

    19 December, Tuesday

    Time Temperature Precipitation Wind Pressure Humidity
    00:00 +15°C° 0 mm 1 mps 607 mmHg 80%
    01:00 +14°C° 0 mm 1 mps 607 mmHg 82%
    02:00 +14°C° 0.1 mm 1 mps 607 mmHg 82%
    03:00 +14°C° 0.1 mm 1 mps 606 mmHg 83%
    04:00 +14°C° 0.1 mm 1 mps 606 mmHg 84%
    05:00 +14°C° 0.4 mm 1 mps 607 mmHg 83%
    06:00 +15°C° 0.4 mm 1 mps 607 mmHg 81%
    07:00 +15°C° 0.4 mm 1 mps 608 mmHg 80%
    08:00 +16°C° 0.3 mm 1 mps 608 mmHg 76%
    09:00 +16°C° 0.3 mm 1 mps 608 mmHg 73%
    10:00 +18°C° 0.3 mm 1 mps 609 mmHg 69%
    11:00 +18°C° 0.1 mm 1 mps 608 mmHg 68%
    12:00 +17°C° 0.1 mm 2 mps 608 mmHg 66%
    13:00 +18°C° 0.1 mm 2 mps 607 mmHg 64%
    14:00 +18°C° 0 mm 2 mps 607 mmHg 61%
    15:00 +19°C° 0 mm 2 mps 607 mmHg 57%
    16:00 +20°C° 0 mm 2 mps 607 mmHg 54%
    17:00 +18°C° 0 mm 2 mps 607 mmHg 60%
    18:00 +17°C° 0 mm 2 mps 607 mmHg 66%
    19:00 +16°C° 0 mm 1 mps 607 mmHg 72%
    20:00 +15°C° 0 mm 1 mps 607 mmHg 75%
    21:00 +15°C° 0 mm 1 mps 607 mmHg 79%
    22:00 +14°C° 0 mm 1 mps 608 mmHg 83%
    23:00 +14°C° 0 mm 1 mps 607 mmHg 84%

    20 December, Wednesday

    Time Temperature Precipitation Wind Pressure Humidity
    00:00 +14°C° 0 mm 1 mps 607 mmHg 86%
    01:00 +14°C° 0 mm 1 mps 607 mmHg 87%
    02:00 +14°C° 0.1 mm 1 mps 607 mmHg 88%
    03:00 +14°C° 0.1 mm 1 mps 606 mmHg 90%
    04:00 +13°C° 0.1 mm 1 mps 606 mmHg 91%
    05:00 +14°C° 0.1 mm 1 mps 607 mmHg 87%
    06:00 +15°C° 0.1 mm 1 mps 607 mmHg 83%
    07:00 +15°C° 0.1 mm 1 mps 608 mmHg 79%
    08:00 +18°C° 0 mm 1 mps 609 mmHg 71%
    09:00 +19°C° 0 mm 1 mps 609 mmHg 62%
    10:00 +20°C° 0 mm 1 mps 610 mmHg 54%
    11:00 +21°C° 0 mm 1 mps 610 mmHg 52%
    12:00 +20°C° 0 mm 2 mps 609 mmHg 50%
    13:00 +20°C° 0 mm 2 mps 609 mmHg 48%
    14:00 +21°C° 0 mm 2 mps 609 mmHg 47%
    15:00 +21°C° 0 mm 2 mps 609 mmHg 47%
    16:00 +21°C° 0 mm 2 mps 609 mmHg 46%
    17:00 +20°C° 0 mm 2 mps 609 mmHg 52%
    18:00 +18°C° 0 mm 2 mps 608 mmHg 58%
    19:00 +16°C° 0 mm 1 mps 608 mmHg 63%
    20:00 +16°C° 0 mm 1 mps 608 mmHg 68%
    21:00 +15°C° 0 mm 1 mps 608 mmHg 73%
    22:00 +14°C° 0 mm 1 mps 608 mmHg 78%
    23:00 +14°C° 0 mm 1 mps 608 mmHg 80%
    Show more